Chongqing, China

11:16 AM CST on December 09, 2019 (GMT +0800)
Jiangbei

Weather History for ZUCK - November, 2019

Change the Weather History Date:

Sunday, November 17, 2019

  Actual Average Record
Temperature  
Mean Temperature 58 °F -  
Max Temperature 62 °F - - ()
Min Temperature 51 °F - - ()
Degree Days  
Heating Degree Days 8    
Growing Degree Days 8 (Base 50)    
Moisture  
Dew Point 55 °F    
Average Humidity 88    
Maximum Humidity 94    
Minimum Humidity 75    
Precipitation  
Precipitation 0.16 in - - ()
Sea Level Pressure  
Sea Level Pressure 30.04 in    
Wind  
Wind Speed 4 mph ()    
Max Wind Speed 16 mph    
Max Gust Speed -    
Visibility 3.0 miles    
Events Fog , Rain    
T = Trace of Precipitation, MM = Missing Value Source: Averaged Metar Reports

Daily Weather History Graph

Daily Weather History Graph

Search for Another Location

Airport or City:

Astronomy

Nov. 17, 2019 Rise Set
Actual Time 7:19 AM CST 5:57 PM CST
Civil Twilight 6:53 AM CST 6:22 PM CST
Nautical Twilight 6:24 AM CST 6:51 PM CST
Astronomical Twilight 5:56 AM CST 7:19 PM CST
Moon 10:04 PM CST (11/17) 11:30 AM CST (11/17)
Length of Visible Light 11h 28m
Length of Day
10h 38m
Waning Gibbous, 78% of the Moon is Illuminated
Nov 17
Waning Gibbous
Nov 20
Last Quarter
Nov 26
New
Dec 4
First Quarter
Dec 12
Full

Hourly Weather History & Observations

Time (CST) Temp. Dew Point Humidity Pressure Visibility Wind Dir Wind Speed Gust Speed Precip Events Conditions
12:00 AM 59.0 °F 55.4 °F 88% 29.95 in 2.8 mi North 4.5 mph - N/A Rain Light Rain
1:00 AM 57.2 °F 55.4 °F 94% 29.95 in 1.6 mi South 4.5 mph - N/A Fog , Rain Light Rain
2:00 AM 58 °F 56 °F 90% 29.95 in 1 mi Calm Calm - - Rain Light Rain
2:00 AM 57.2 °F 55.4 °F 94% 29.95 in 1.2 mi SSE 2.2 mph - N/A Fog , Rain Light Rain
3:00 AM 57.2 °F 55.4 °F 94% 29.95 in 1.2 mi South 4.5 mph - N/A Fog , Rain Light Rain
4:00 AM 57.2 °F 55.4 °F 94% 29.95 in 1.6 mi SSW 4.5 mph - N/A Fog , Rain Light Rain
5:00 AM 59 °F 56 °F 86% 29.92 in 2 mi SW 2.2 mph - -   Mist
5:00 AM 57.2 °F 55.4 °F 94% 29.92 in 1.9 mi West 6.7 mph - N/A   Overcast
6:00 AM 57.2 °F 55.4 °F 94% 29.95 in 1.2 mi WSW 4.5 mph - N/A Rain Light Rain
7:00 AM 55.4 °F 53.6 °F 94% 29.95 in 1.2 mi West 11.2 mph - N/A Rain Light Rain
8:00 AM 58 °F 54 °F 84% 29.96 in - SW 2.2 mph - -   Mist
8:00 AM 57.2 °F 53.6 °F 88% 29.98 in 1.7 mi Variable 2.2 mph - N/A   Overcast
9:00 AM 57.2 °F 55.4 °F 94% 30.01 in 1.8 mi SSE 4.5 mph - N/A   Scattered Clouds
10:00 AM 57.2 °F 55.4 °F 94% 30.01 in 1.9 mi SE 2.2 mph - N/A   Mostly Cloudy
11:00 AM 61 °F 56 °F 78% 30.00 in 3 mi SE 2.2 mph - -   Mist
12:00 PM 59.0 °F 55.4 °F 88% 30.01 in - Variable 2.2 mph - N/A   Mostly Cloudy
1:00 PM 59.0 °F 55.4 °F 88% 30.01 in 2.5 mi Variable 2.2 mph - N/A   Mostly Cloudy
2:00 PM 62 °F 56 °F 75% 29.99 in 3 mi NNW 2.2 mph - -   Mist
2:00 PM 59.0 °F 55.4 °F 88% 30.01 in - Calm Calm - N/A   Mostly Cloudy
3:00 PM 59.0 °F 53.6 °F 82% 30.01 in 2.8 mi WNW 4.5 mph - N/A   Mostly Cloudy
4:00 PM 59.0 °F 55.4 °F 88% 30.04 in 2.5 mi NW 4.5 mph - N/A   Overcast
5:00 PM 61 °F 56 °F 78% 30.06 in 2 mi NNW 4.5 mph - - Rain Light Rain
5:00 PM 59.0 °F 55.4 °F 88% 30.06 in 2.2 mi NW 6.7 mph - N/A Rain Light Rain
7:00 PM 57.2 °F 55.4 °F 94% 30.15 in - NW 8.9 mph - N/A Rain Light Rain
8:00 PM 58 °F 55 °F 88% 30.19 in 1 mi NNW 11.2 mph - - Rain Light Rain
8:00 PM 57.2 °F 55.4 °F 94% 30.18 in 6.2 mi NW 6.7 mph - N/A Rain Light Rain
9:00 PM 57.2 °F 53.6 °F 88% 30.21 in 5.0 mi North 13.4 mph - N/A Rain Light Rain
10:00 PM 53.6 °F 50.0 °F 88% 30.27 in 6.2 mi North 15.7 mph - N/A Rain Light Rain
11:00 PM 54 °F 50 °F 80% 30.29 in 13 mi North 8.9 mph - - Rain Light Rain
11:00 PM 51.8 °F 48.2 °F 88% 30.30 in 6.2 mi North 13.4 mph - N/A Rain Light Rain